Forecast for Flamstone Farm, Bishopstone - last updated: Sat 03 Dec 11:00
Today     DescriptionTempPrecip.Rain risk%Pressure Wind AvGustHumidityVisibility
Sat 03 Dec     DescriptionTempPrecip.Rain risk%Pressure Wind AvGustHumidityVisibility
08:00 BSTOvercast4.7°C - 9 % 1022 mb22 mph78 %8.2 mls
11:00 BSTOvercast5.2°C - 9 % 1021 mb21 mph83 %9.4 mls
14:00 BSTOvercast6.2°C - 15 % 1019 mb20 mph82 %12.0 mls
17:00 BSTCloudy6.2°C - 9 % 1018 mb22 mph73 %10.0 mls
20:00 BSTOvercast5.2°C - 11 % 1018 mb18 mph78 %11.6 mls
23:00 BSTOvercast4.7°C - 10 % 1017 mb17 mph80 %11.3 mls
02:00 BSTOvercast4.2°C - 12 % 1016 mb18 mph84 %10.8 mls
05:00 BSTOvercast3.9°C - 13 % 1016 mb18 mph84 %9.9 mls
Sun 04 Dec     DescriptionTempPrecip.Rain risk%Pressure Wind AvGustHumidityVisibility
08:00 BSTOvercast3.6°C - 47 % 1017 mb17 mph88 %9.8 mls
11:00 BSTOvercast4.3°C - 45 % 1017 mb16 mph87 %11.5 mls
14:00 BSTOvercast4.6°C - 13 % 1017 mb16 mph86 %11.0 mls
17:00 BSTOvercast4.4°C - 11 % 1018 mb18 mph85 %13.8 mls
20:00 BSTOvercast4.1°C - 10 % 1019 mb17 mph83 %15.6 mls
23:00 BSTOvercast3.8°C - 11 % 1019 mb16 mph86 %15.6 mls
02:00 BSTOvercast3.7°C - 14 % 1020 mb14 mph87 %15.5 mls
05:00 BSTOvercast3.9°C - 12 % 1021 mb14 mph88 %14.5 mls
Mon 05 Dec     DescriptionTempPrecip.Rain risk%Pressure Wind AvGustHumidityVisibility
08:00 BSTOvercast4.3°C - 11 % 1023 mb15 mph87 %15.3 mls
11:00 BSTOvercast5.7°C - 13 % 1023 mb14 mph84 %16.8 mls
14:00 BSTOvercast6.4°C - 14 % 1023 mb13 mph84 %18.8 mls
17:00 BSTOvercast6.3°C - 12 % 1024 mb14 mph90 %15.9 mls
20:00 BSTOvercast5.6°C - 12 % 1024 mb15 mph92 %14.1 mls
23:00 BSTOvercast5.5°C - 11 % 1023 mb16 mph91 %15.2 mls
02:00 BSTOvercast5.2°C - 11 % 1023 mb16 mph90 %16.5 mls
05:00 BSTOvercast4.9°C - 11 % 1022 mb16 mph89 %16.5 mls
Tue 06 Dec     DescriptionTempPrecip.Rain risk%Pressure Wind AvGustHumidityVisibility
08:00 BSTOvercast4.4°C - 10 % 1022 mb16 mph89 %16.8 mls
11:00 BSTCloudy5.8°C - 7 % 1022 mb17 mph81 %20.2 mls
14:00 BSTCloudy5.9°C - 6 % 1021 mb14 mph78 %21.2 mls
17:00 BSTCloudy5.6°C - 5 % 1020 mb13 mph88 %17.9 mls
20:00 BSTOvercast3.2°C - 8 % 1020 mb12 mph90 %16.5 mls
23:00 BSTOvercast3.2°C - 9 % 1019 mb13 mph90 %15.4 mls
02:00 BSTCloudy3.0°C - 7 % 1019 mb13 mph92 %15.6 mls
05:00 BSTCloudy2.4°C - 6 % 1018 mb14 mph92 %15.0 mls
Wed 07 Dec     DescriptionTempPrecip.Rain risk%Pressure Wind AvGustHumidityVisibility
08:00 BSTCloudy1.3°C - 6 % 1018 mb13 mph90 %15.8 mls
11:00 BSTPartly cloudy (day)3.6°C - 3 % 1017 mb15 mph82 %17.2 mls
14:00 BSTPartly cloudy (day)3.7°C - 3 % 1016 mb12 mph80 %19.2 mls
17:00 BSTPartly cloudy (night)3.4°C - 2 % 1016 mb11 mph87 %17.3 mls
20:00 BSTPartly cloudy (night)0.7°C - 2 % 1015 mb10 mph89 %16.0 mls
23:00 BSTCloudy-0.3°C - 5 % 1013 mb9 mph91 %15.3 mls
02:00 BSTCloudy-1.0°C - 5 % 1012 mb8 mph92 %14.7 mls
05:00 BSTPartly cloudy (night)-1.2°C - 4 % 1010 mb9 mph93 %13.0 mls
Thu 08 Dec     DescriptionTempPrecip.Rain risk%Pressure Wind AvGustHumidityVisibility
08:00 BSTPartly cloudy (day)-0.7°C - 5 % 1010 mb10 mph91 %8.0 mls
11:00 BSTPartly cloudy (day)2.3°C - 5 % 1008 mb12 mph80 %18.4 mls
14:00 BSTPartly cloudy (day)2.2°C - 5 % 1007 mb9 mph82 %18.8 mls
17:00 BSTPartly cloudy (night)1.9°C - 4 % 1007 mb10 mph89 %16.6 mls
20:00 BSTClear night-1.0°C - 3 % 1007 mb10 mph91 %15.0 mls
23:00 BSTClear night-1.6°C - 3 % 1007 mb11 mph91 %8.7 mls
02:00 BSTClear night-1.8°C - 3 % 1007 mb11 mph92 %2.6 mls
05:00 BSTClear night-2.3°C - 4 % 1007 mb11 mph92 %2.6 mls
Never base important decisions that could result in harm to people or property on this weather information.